| time (UTC) | temp C | wind direction | speed KPH | gust KPH | rain 1hr cm | rain 24hr cm | rain mn cm | humidity % | barometer mb |
| 20260507204558 | 16 | 213 | 0.0 | 1.6 | 0.00 | 0.15 | 0.15 | 80 | 1007.5 |
| 20260507203056 | 16 | 165 | 0.0 | 1.6 | 0.00 | 0.15 | 0.15 | 83 | 1007.7 |
| 20260507201555 | 15 | 230 | 0.0 | 0.0 | 0.00 | 0.15 | 0.15 | 86 | 1007.8 |
| 20260507200054 | 14 | 144 | 0.0 | 1.6 | 0.00 | 0.15 | 0.15 | 87 | 1008.1 |
| 20260507194616 | 14 | 201 | 0.0 | 0.0 | 0.03 | 0.15 | 0.15 | 89 | 1008.4 |
| 20260507193049 | 13 | 217 | 0.0 | 0.0 | 0.05 | 0.15 | 0.15 | 89 | 1008.6 |
| 20260507191550 | 13 | 223 | 0.0 | 0.0 | 0.05 | 0.15 | 0.15 | 91 | 1008.9 |
| 20260507190052 | 12 | 188 | 0.0 | 0.0 | 0.05 | 0.15 | 0.15 | 91 | 1009.1 |
| 20260507184545 | 12 | 157 | 0.0 | 0.0 | 0.03 | 0.13 | 0.13 | 90 | 1009.3 |
| 20260507183047 | 13 | 157 | 0.0 | 0.0 | 0.00 | 0.10 | 0.10 | 91 | 1009.3 |
| 20260507181552 | 13 | 157 | 0.0 | 0.0 | 0.00 | 0.10 | 0.10 | 91 | 1009.2 |
| 20260507180044 | 13 | 38 | 0.0 | 0.0 | 0.05 | 0.10 | 0.10 | 91 | 1009.4 |
| 20260507174554 | 12 | 267 | 0.0 | 0.0 | 0.05 | 0.10 | 0.10 | 90 | 1009.2 |
| 20260507173113 | 12 | 266 | 0.0 | 0.0 | 0.05 | 0.10 | 0.10 | 91 | 1009.3 |
| 20260507171547 | 12 | 298 | 0.0 | 0.0 | 0.05 | 0.10 | 0.10 | 91 | 1009.5 |
| 20260507170041 | 12 | 298 | 0.0 | 0.0 | 0.05 | 0.05 | 0.05 | 90 | 1009.7 |
| 20260507164547 | 13 | 298 | 0.0 | 0.0 | 0.05 | 0.05 | 0.05 | 89 | 1009.5 |
| 20260507163038 | 13 | 26 | 0.0 | 0.0 | 0.05 | 0.05 | 0.05 | 88 | 1009.7 |
| 20260507161553 | 13 | 11 | 0.0 | 1.6 | 0.05 | 0.05 | 0.05 | 87 | 1009.6 |
| 20260507160039 | 13 | 315 | 0.0 | 0.0 | 0.00 | 0.00 | 0.00 | 83 | 1009.9 |
| 20260507154535 | 13 | 5 | 0.0 | 1.6 | 0.00 | 0.00 | 0.00 | 84 | 1010.0 |
| 20260507153033 | 13 | 281 | 0.0 | 0.0 | 0.00 | 0.00 | 0.00 | 84 | 1010.0 |
| 20260507151533 | 13 | 338 | 0.0 | 0.0 | 0.00 | 0.00 | 0.00 | 84 | 1010.0 |
| 20260507150032 | 13 | 302 | 0.0 | 0.0 | 0.00 | 0.00 | 0.00 | 84 | 1009.9 |
| 20260507144534 | 13 | 15 | 0.0 | 0.0 | 0.00 | 0.00 | 0.00 | 82 | 1009.9 |
| 20260507143028 | 14 | 267 | 0.0 | 0.0 | 0.00 | 0.00 | 0.00 | 83 | 1009.7 |
| 20260507141528 | 14 | 190 | 0.0 | 0.0 | 0.00 | 0.00 | 0.00 | 82 | 1009.7 |
| 20260507140027 | 14 | 246 | 0.0 | 0.0 | 0.00 | 0.00 | 0.00 | 82 | 1009.9 |
| 20260507134526 | 15 | 321 | 0.0 | 0.0 | 0.00 | 0.00 | 0.00 | 82 | 1010.0 |
| 20260507133028 | 15 | 327 | 0.0 | 0.0 | 0.00 | 0.00 | 0.00 | 82 | 1010.1 |
| 20260507131530 | 15 | 335 | 0.0 | 0.0 | 0.00 | 0.00 | 0.00 | 81 | 1010.2 |
| 20260507130026 | 15 | 237 | 0.0 | 0.0 | 0.00 | 0.00 | 0.00 | 84 | 1009.8 |
| 20260507124521 | 15 | 52 | 0.0 | 0.0 | 0.00 | 0.00 | 0.00 | 85 | 1010.0 |
| 20260507123021 | 15 | 309 | 0.0 | 0.0 | 0.00 | 0.00 | 0.00 | 85 | 1010.0 |
| 20260507121520 | 15 | 304 | 0.0 | 0.0 | 0.00 | 0.00 | 0.00 | 84 | 1010.1 |
| 20260507120036 | 15 | 314 | 0.0 | 0.0 | 0.00 | 0.00 | 0.00 | 86 | 1010.1 |
| 20260507114517 | 14 | 328 | 0.0 | 0.0 | 0.00 | 0.15 | 0.00 | 87 | 1010.0 |
| 20260507113034 | 14 | 286 | 0.0 | 0.0 | 0.00 | 0.15 | 0.00 | 88 | 1009.7 |
| 20260507111514 | 14 | 355 | 0.0 | 0.0 | 0.00 | 0.15 | 0.00 | 87 | 1009.5 |
| 20260507110012 | 14 | 348 | 0.0 | 0.0 | 0.00 | 0.15 | 0.00 | 86 | 1009.4 |
| 20260507104514 | 14 | 348 | 0.0 | 0.0 | 0.00 | 0.15 | 0.00 | 86 | 1009.3 |
| 20260507103008 | 14 | 348 | 0.0 | 0.0 | 0.00 | 0.15 | 0.00 | 86 | 1009.0 |
| 20260507101507 | 15 | 360 | 0.0 | 0.0 | 0.00 | 0.15 | 0.00 | 85 | 1008.9 |
| 20260507100005 | 15 | 34 | 0.0 | 0.0 | 0.00 | 0.15 | 0.00 | 86 | 1009.2 |
| 20260507094503 | 15 | 34 | 0.0 | 0.0 | 0.00 | 0.15 | 0.00 | 85 | 1009.2 |
| 20260507093002 | 15 | 35 | 0.0 | 0.0 | 0.00 | 0.15 | 0.00 | 84 | 1009.4 |
| 20260507091501 | 15 | 346 | 0.0 | 0.0 | 0.00 | 0.15 | 0.00 | 86 | 1008.9 |
| 20260507090100 | 15 | 11 | 0.0 | 0.0 | 0.00 | 0.15 | 0.00 | 88 | 1008.3 |
| 20260507084603 | 15 | 15 | 0.0 | 0.0 | 0.00 | 0.15 | 0.00 | 90 | 1009.0 |
| 20260507083057 | 15 | 36 | 0.0 | 0.0 | 0.00 | 0.15 | 0.00 | 89 | 1009.0 |
| 20260507081555 | 16 | 60 | 0.0 | 0.0 | 0.00 | 0.15 | 0.00 | 89 | 1008.9 |
| 20260507080054 | 16 | 61 | 0.0 | 0.0 | 0.00 | 0.15 | 0.00 | 88 | 1008.7 |
| 20260507074553 | 16 | 5 | 0.0 | 0.0 | 0.00 | 0.15 | 0.00 | 89 | 1009.0 |
| 20260507073125 | 16 | 119 | 0.0 | 0.0 | 0.00 | 0.15 | 0.00 | 91 | 1008.6 |
| 20260507071551 | 16 | 119 | 0.0 | 0.0 | 0.00 | 0.15 | 0.00 | 91 | 1008.5 |
| 20260507070050 | 16 | 127 | 0.0 | 0.0 | 0.00 | 0.15 | 0.00 | 92 | 1008.6 |
| 20260507064604 | 16 | 127 | 0.0 | 0.0 | 0.00 | 0.15 | 0.00 | 92 | 1008.6 |
| 20260507063056 | 17 | 127 | 0.0 | 0.0 | 0.00 | 0.15 | 0.00 | 92 | 1008.5 |
| 20260507061545 | 17 | 192 | 0.0 | 0.0 | 0.00 | 0.15 | 0.00 | 91 | 1008.5 |
| 20260507060044 | 17 | 192 | 0.0 | 0.0 | 0.00 | 0.15 | 0.00 | 91 | 1008.8 |
| 20260507054543 | 17 | 192 | 0.0 | 0.0 | 0.00 | 0.15 | 0.00 | 90 | 1009.3 |
| 20260507053043 | 17 | 192 | 0.0 | 0.0 | 0.00 | 0.15 | 0.00 | 88 | 1009.5 |
| 20260507051540 | 18 | 188 | 0.0 | 0.0 | 0.00 | 0.15 | 0.00 | 85 | 1008.9 |
| 20260507050036 | 17 | 236 | 0.0 | 3.2 | 0.00 | 0.15 | 0.00 | 86 | 1008.5 |
| 20260507044533 | 17 | 224 | 0.0 | 0.0 | 0.00 | 0.15 | 0.00 | 90 | 1008.2 |
| 20260507043032 | 17 | 191 | 0.0 | 0.0 | 0.00 | 0.15 | 0.00 | 90 | 1008.1 |
| 20260507041538 | 17 | 219 | 0.0 | 0.0 | 0.00 | 0.15 | 0.00 | 90 | 1008.3 |
| 20260507040026 | 17 | 219 | 0.0 | 0.0 | 0.00 | 0.15 | 0.00 | 90 | 1008.5 |
| 20260507034532 | 17 | 204 | 0.0 | 0.0 | 0.00 | 0.15 | 0.15 | 91 | 1009.2 |
| 20260507033025 | 17 | 181 | 0.0 | 0.0 | 0.00 | 0.15 | 0.15 | 90 | 1009.7 |
| 20260507031524 | 17 | 192 | 0.0 | 0.0 | 0.00 | 0.15 | 0.15 | 89 | 1010.1 |
| 20260507030024 | 18 | 157 | 0.0 | 0.0 | 0.00 | 0.15 | 0.15 | 86 | 1009.7 |
| 20260507024523 | 19 | 184 | 0.0 | 0.0 | 0.00 | 0.15 | 0.15 | 83 | 1009.7 |
| 20260507023023 | 19 | 196 | 0.0 | 0.0 | 0.00 | 0.15 | 0.15 | 84 | 1009.7 |
| 20260507021522 | 20 | 207 | 0.0 | 0.0 | 0.00 | 0.15 | 0.15 | 81 | 1009.4 |
| 20260507020023 | 20 | 230 | 0.0 | 1.6 | 0.00 | 0.15 | 0.15 | 79 | 1009.3 |
| 20260507014524 | 20 | 199 | 0.0 | 0.0 | 0.00 | 0.15 | 0.15 | 79 | 1008.8 |
| 20260507013020 | 20 | 202 | 0.0 | 16.1 | 0.00 | 0.15 | 0.15 | 81 | 1008.0 |
| 20260507011520 | 20 | 211 | 0.0 | 0.0 | 0.00 | 0.15 | 0.15 | 81 | 1007.8 |
| 20260507010029 | 19 | 181 | 0.0 | 0.0 | 0.00 | 0.15 | 0.15 | 83 | 1008.5 |
| 20260507004518 | 19 | 162 | 0.0 | 0.0 | 0.00 | 0.15 | 0.15 | 84 | 1008.4 |
| 20260507003018 | 19 | 146 | 0.0 | 1.6 | 0.00 | 0.15 | 0.15 | 83 | 1008.2 |
| 20260507001517 | 20 | 182 | 0.0 | 0.0 | 0.00 | 0.15 | 0.15 | 83 | 1008.3 |
| 20260507000018 | 20 | 207 | 0.0 | 0.0 | 0.00 | 0.15 | 0.15 | 82 | 1007.9 |
| 20260506234535 | 20 | 168 | 0.0 | 1.6 | 0.00 | 0.15 | 0.15 | 79 | 1008.1 |
| 20260506233017 | 20 | 167 | 0.0 | 1.6 | 0.00 | 0.15 | 0.15 | 81 | 1008.0 |
| 20260506231516 | 21 | 212 | 0.0 | 0.0 | 0.00 | 0.15 | 0.15 | 79 | 1007.9 |
| 20260506230017 | 21 | 212 | 0.0 | 8.0 | 0.00 | 0.15 | 0.15 | 76 | 1008.2 |
| 20260506224524 | 21 | 193 | 0.0 | 1.6 | 0.00 | 0.15 | 0.15 | 77 | 1008.3 |
| 20260506223014 | 21 | 200 | 0.0 | 0.0 | 0.00 | 0.15 | 0.15 | 75 | 1008.0 |
| 20260506221514 | 21 | 210 | 0.0 | 1.6 | 0.00 | 0.15 | 0.15 | 78 | 1008.2 |
| 20260506220028 | 22 | 218 | 0.0 | 8.0 | 0.00 | 0.15 | 0.15 | 76 | 1007.9 |
| 20260506214512 | 22 | 221 | 0.0 | 0.0 | 0.00 | 0.15 | 0.15 | 78 | 1007.8 |
| 20260506213010 | 21 | 207 | 0.0 | 0.0 | 0.00 | 0.15 | 0.15 | 81 | 1007.7 |
| 20260506211517 | 21 | 198 | 0.0 | 0.0 | 0.00 | 0.15 | 0.15 | 80 | 1007.7 |
| 20260506210009 | 21 | 182 | 0.0 | 0.0 | 0.00 | 0.15 | 0.15 | 79 | 1007.7 |